timestamp,wind_dir_avg,wind_spd_avg,wind_spd_max_dir,wind_spd_gust,battery_voltage,lat,long
2022-01-24 00:04:00+00:00,267.0,6.04,268.0,7.12,12.49,47.59359,-54.27349
2022-01-24 00:14:00+00:00,256.0,4.63,259.0,5.31,12.41,47.59359,-54.27349
2022-01-24 00:24:00+00:00,260.0,4.05,272.0,4.67,12.41,47.59359,-54.27349
2022-01-24 00:34:00+00:00,257.0,3.88,256.0,4.6,12.41,47.59359,-54.27349
2022-01-24 00:44:00+00:00,259.0,3.56,268.0,3.89,12.41,47.59359,-54.27349
2022-01-24 00:54:00+00:00,258.0,3.56,261.0,3.91,12.41,47.59359,-54.27349
2022-01-24 01:04:00+00:00,247.0,3.6,239.0,4.11,12.41,47.59359,-54.27349
2022-01-24 01:14:00+00:00,241.0,3.44,242.0,4.03,12.41,47.59359,-54.27349
2022-01-24 01:24:00+00:00,226.0,2.9,222.0,3.59,12.41,47.59359,-54.27349
2022-01-24 01:34:00+00:00,219.0,3.14,219.0,3.83,12.41,47.59359,-54.27349
2022-01-24 01:44:00+00:00,231.0,4.57,228.0,5.04,12.41,47.59359,-54.27349
2022-01-24 01:54:00+00:00,225.0,5.66,225.0,6.52,12.41,47.59359,-54.27349
2022-01-24 02:04:00+00:00,242.0,5.02,260.0,7.95,12.41,47.59359,-54.27349
2022-01-24 02:14:00+00:00,233.0,5.72,231.0,6.68,12.41,47.59359,-54.27349
2022-01-24 02:24:00+00:00,233.0,5.21,232.0,5.96,12.41,47.59359,-54.27349
2022-01-24 02:34:00+00:00,231.0,4.7,230.0,5.88,12.41,47.59359,-54.27349
2022-01-24 02:44:00+00:00,233.0,4.9,235.0,6.38,12.41,47.59359,-54.27349
2022-01-24 02:54:00+00:00,230.0,5.49,236.0,6.95,12.41,47.59359,-54.27349
2022-01-24 03:04:00+00:00,226.0,5.83,234.0,7.41,12.41,47.59359,-54.27349
2022-01-24 03:14:00+00:00,242.0,7.58,255.0,9.8,12.41,47.59359,-54.27349
2022-01-24 03:24:00+00:00,229.0,5.03,245.0,7.78,12.41,47.59359,-54.27349
2022-01-24 03:34:00+00:00,235.0,6.43,249.0,8.68,12.41,47.59359,-54.27349
2022-01-24 03:44:00+00:00,234.0,7.39,244.0,9.89,12.41,47.59359,-54.27349
2022-01-24 03:54:00+00:00,226.0,5.01,228.0,5.74,12.41,47.59359,-54.27349
2022-01-24 04:04:00+00:00,242.0,7.16,250.0,10.09,12.41,47.59359,-54.27349
2022-01-24 04:14:01+00:00,239.0,4.99,249.0,7.24,12.41,47.59359,-54.27349
2022-01-24 04:24:01+00:00,237.0,7.11,248.0,9.62,12.41,47.59359,-54.27349
2022-01-24 04:34:01+00:00,250.0,9.44,258.0,11.11,12.41,47.59359,-54.27349
2022-01-24 04:44:01+00:00,250.0,9.42,253.0,10.21,12.41,47.59359,-54.27349
2022-01-24 04:54:01+00:00,243.0,9.15,250.0,10.64,12.41,47.59359,-54.27349
2022-01-24 05:04:01+00:00,239.0,7.23,248.0,10.03,12.41,47.59359,-54.27349
2022-01-24 05:14:01+00:00,245.0,8.51,246.0,10.05,12.41,47.59359,-54.27349
2022-01-24 05:24:01+00:00,244.0,10.12,248.0,11.38,12.41,47.59359,-54.27349
2022-01-24 05:34:01+00:00,234.0,8.15,248.0,10.61,12.41,47.59359,-54.27349
2022-01-24 05:44:01+00:00,233.0,6.23,244.0,9.91,12.41,47.59359,-54.27349
2022-01-24 05:54:01+00:00,217.0,5.68,231.0,6.85,12.41,47.59359,-54.27349
2022-01-24 06:04:01+00:00,234.0,8.25,241.0,10.46,12.41,47.59359,-54.27349
2022-01-24 06:14:01+00:00,237.0,7.76,247.0,10.21,12.33,47.59359,-54.27349
2022-01-24 06:24:01+00:00,237.0,9.14,233.0,10.96,12.33,47.59359,-54.27349
2022-01-24 06:34:01+00:00,228.0,7.0,244.0,10.15,12.33,47.59359,-54.27349
2022-01-24 06:44:01+00:00,237.0,11.31,238.0,12.08,12.33,47.59359,-54.27349
2022-01-24 06:54:01+00:00,229.0,6.33,243.0,9.74,12.33,47.59359,-54.27349
2022-01-24 07:04:01+00:00,239.0,11.01,238.0,12.45,12.33,47.59359,-54.27349
2022-01-24 07:14:00+00:00,239.0,11.2,239.0,12.24,12.33,47.59359,-54.27349
2022-01-24 07:24:00+00:00,242.0,10.37,239.0,11.91,12.33,47.59359,-54.27349
2022-01-24 07:34:00+00:00,240.0,10.68,237.0,12.6,12.33,47.59359,-54.27349
2022-01-24 07:44:00+00:00,241.0,10.02,238.0,11.74,12.33,47.59359,-54.27349
2022-01-24 07:54:00+00:00,244.0,10.43,243.0,11.44,12.33,47.59359,-54.27349
2022-01-24 08:04:00+00:00,248.0,10.34,247.0,10.99,12.33,47.59359,-54.27349
2022-01-24 08:14:00+00:00,254.0,9.51,256.0,10.19,12.33,47.59359,-54.27349
2022-01-24 08:24:00+00:00,259.0,9.52,257.0,10.03,12.33,47.59359,-54.27349
2022-01-24 08:34:00+00:00,255.0,8.92,256.0,9.89,12.33,47.59359,-54.27349
2022-01-24 08:44:00+00:00,257.0,8.74,260.0,10.3,12.33,47.59359,-54.27349
2022-01-24 08:54:00+00:00,255.0,9.22,255.0,9.82,12.33,47.59359,-54.27349
2022-01-24 09:04:00+00:00,255.0,8.55,256.0,9.62,12.33,47.59359,-54.27349
2022-01-24 09:14:00+00:00,230.0,4.83,235.0,5.33,12.33,47.59359,-54.27349
2022-01-24 09:24:00+00:00,226.0,4.14,248.0,7.51,12.33,47.59359,-54.27349
2022-01-24 09:34:00+00:00,226.0,4.47,222.0,5.22,12.33,47.59359,-54.27349
2022-01-24 09:44:00+00:00,212.0,3.21,222.0,4.98,12.33,47.59359,-54.27349
2022-01-24 09:54:00+00:00,216.0,3.93,222.0,5.08,12.33,47.59359,-54.27349
2022-01-24 10:04:00+00:00,165.0,3.04,228.0,4.45,12.33,47.59359,-54.27349
2022-01-24 10:14:00+00:00,212.0,5.36,242.0,9.05,12.33,47.59359,-54.27349
2022-01-24 10:24:00+00:00,191.0,9.69,202.0,11.13,12.33,47.59359,-54.27349
2022-01-24 10:34:00+00:00,186.0,8.64,221.0,10.91,12.33,47.59359,-54.27349
2022-01-24 10:44:00+00:00,210.0,10.07,227.0,12.38,12.33,47.59359,-54.27349
2022-01-24 10:54:00+00:00,208.0,9.4,223.0,12.47,12.33,47.59359,-54.27349
2022-01-24 11:04:00+00:00,196.0,8.93,201.0,10.16,12.33,47.59359,-54.27349
2022-01-24 11:14:01+00:00,188.0,9.16,212.0,11.71,12.33,47.59359,-54.27349
2022-01-24 11:24:01+00:00,196.0,8.88,214.0,10.91,12.33,47.59359,-54.27349
2022-01-24 11:34:01+00:00,201.0,7.49,203.0,9.18,12.33,47.59359,-54.27349
2022-01-24 11:44:01+00:00,171.0,10.09,177.0,10.8,12.33,47.59359,-54.27349
2022-01-24 11:54:01+00:00,169.0,9.58,172.0,11.38,12.33,47.59359,-54.27349
2022-01-24 12:04:01+00:00,170.0,9.33,176.0,10.69,12.33,47.59359,-54.27349
2022-01-24 12:14:01+00:00,168.0,10.82,172.0,12.19,12.33,47.59359,-54.27349
2022-01-24 12:24:01+00:00,171.0,9.74,171.0,11.05,12.33,47.59359,-54.27349
2022-01-24 12:34:01+00:00,169.0,8.66,173.0,9.55,12.33,47.59359,-54.27349
2022-01-24 12:44:01+00:00,178.0,8.22,174.0,9.44,12.33,47.59359,-54.27349
2022-01-24 12:54:01+00:00,174.0,7.38,162.0,8.75,12.33,47.59359,-54.27349
2022-01-24 13:04:01+00:00,173.0,8.49,162.0,10.26,12.33,47.59359,-54.27349
2022-01-24 13:14:01+00:00,173.0,8.57,165.0,9.88,12.81,47.59359,-54.27349
2022-01-24 13:24:01+00:00,179.0,7.36,163.0,9.36,12.81,47.59359,-54.27349
2022-01-24 13:34:01+00:00,187.0,7.51,189.0,8.74,12.81,47.59359,-54.27349
2022-01-24 13:44:01+00:00,180.0,6.72,200.0,7.98,12.81,47.59359,-54.27349
2022-01-24 13:54:01+00:00,186.0,6.82,199.0,8.09,12.81,47.59359,-54.27349
2022-01-24 14:04:01+00:00,178.0,8.93,177.0,10.17,12.81,47.59359,-54.27349
2022-01-24 14:14:00+00:00,182.0,8.84,194.0,10.06,12.65,47.59359,-54.27349
2022-01-24 14:24:00+00:00,189.0,8.65,193.0,9.79,12.65,47.59359,-54.27349
2022-01-24 14:34:00+00:00,189.0,7.04,196.0,8.1,12.65,47.59359,-54.27349
2022-01-24 14:44:00+00:00,187.0,5.8,193.0,7.51,12.65,47.59359,-54.27349
2022-01-24 14:54:00+00:00,181.0,7.23,196.0,9.14,12.65,47.59359,-54.27349
2022-01-24 15:04:00+00:00,180.0,8.49,191.0,9.87,12.65,47.59359,-54.27349
2022-01-24 15:14:00+00:00,186.0,8.91,192.0,10.39,12.73,47.59359,-54.27349
2022-01-24 15:24:00+00:00,186.0,9.03,189.0,10.53,12.73,47.59359,-54.27349
2022-01-24 15:34:00+00:00,179.0,9.38,180.0,10.94,12.73,47.59359,-54.27349
2022-01-24 15:44:00+00:00,177.0,9.11,182.0,10.71,12.73,47.59359,-54.27349
2022-01-24 15:54:00+00:00,180.0,10.41,180.0,11.44,12.73,47.59359,-54.27349
2022-01-24 16:04:00+00:00,178.0,11.71,177.0,13.42,12.73,47.59359,-54.27349
2022-01-24 16:14:00+00:00,180.0,10.56,181.0,12.44,12.81,47.59359,-54.27349
2022-01-24 16:24:00+00:00,176.0,11.78,178.0,13.54,12.81,47.59359,-54.27349
2022-01-24 16:34:00+00:00,177.0,11.11,180.0,13.5,12.81,47.59359,-54.27349
2022-01-24 16:44:00+00:00,173.0,10.95,167.0,12.79,12.81,47.59359,-54.27349
2022-01-24 16:54:00+00:00,177.0,11.68,179.0,12.62,12.81,47.59359,-54.27349
2022-01-24 17:04:00+00:00,174.0,12.67,173.0,14.51,12.81,47.59359,-54.27349
2022-01-24 17:14:00+00:00,176.0,11.65,177.0,13.44,12.73,47.59359,-54.27349
2022-01-24 17:24:00+00:00,173.0,12.24,170.0,15.4,12.73,47.59359,-54.27349
2022-01-24 17:34:00+00:00,173.0,12.23,173.0,14.14,12.73,47.59359,-54.27349
2022-01-24 17:44:00+00:00,173.0,11.78,171.0,12.93,12.73,47.59359,-54.27349
2022-01-24 17:54:00+00:00,168.0,9.55,180.0,11.0,12.73,47.59359,-54.27349
2022-01-24 18:04:00+00:00,170.0,11.09,172.0,12.6,12.73,47.59359,-54.27349
2022-01-24 18:14:01+00:00,174.0,11.12,168.0,13.12,12.57,47.59359,-54.27349
2022-01-24 18:24:01+00:00,172.0,11.8,170.0,13.59,12.57,47.59359,-54.27349
2022-01-24 18:34:01+00:00,173.0,11.8,180.0,13.84,12.57,47.59359,-54.27349
2022-01-24 18:44:01+00:00,178.0,8.54,187.0,10.02,12.57,47.59359,-54.27349
2022-01-24 18:54:01+00:00,174.0,9.31,166.0,10.54,12.57,47.59359,-54.27349
2022-01-24 19:04:01+00:00,176.0,8.02,181.0,8.11,12.57,47.59359,-54.27349
2022-01-24 19:14:01+00:00,188.0,7.48,195.0,8.8,12.49,47.59359,-54.27349
2022-01-24 19:24:01+00:00,194.0,7.3,196.0,8.35,12.49,47.59359,-54.27349
2022-01-24 19:34:01+00:00,191.0,6.23,197.0,7.55,12.49,47.59359,-54.27349
2022-01-24 19:44:01+00:00,183.0,5.8,149.0,6.97,12.49,47.59359,-54.27349
2022-01-24 19:54:01+00:00,196.0,4.26,196.0,5.75,12.49,47.59359,-54.27349
2022-01-24 20:04:01+00:00,133.0,6.54,122.0,10.73,12.49,47.59359,-54.27349
2022-01-24 20:14:00+00:00,119.0,7.28,111.0,9.96,12.41,47.59359,-54.27349
2022-01-24 20:24:00+00:00,132.0,6.72,119.0,9.85,12.41,47.59359,-54.27349
2022-01-24 20:34:00+00:00,139.0,5.97,125.0,8.0,12.41,47.59359,-54.27349
2022-01-24 20:44:00+00:00,315.0,0.01,170.0,0.0,12.41,47.59359,-54.27349
2022-01-24 20:54:00+00:00,315.0,0.01,170.0,0.0,12.41,47.59359,-54.27349
2022-01-24 21:04:00+00:00,315.0,0.01,170.0,0.0,12.41,47.59359,-54.27349
2022-01-24 21:14:01+00:00,315.0,0.01,170.0,0.0,12.33,47.59359,-54.27349
2022-01-24 21:24:01+00:00,315.0,0.01,170.0,0.0,12.33,47.59359,-54.27349
2022-01-24 21:34:01+00:00,315.0,0.01,170.0,0.0,12.33,47.59359,-54.27349
2022-01-24 21:44:01+00:00,315.0,0.01,170.0,0.0,12.33,47.59359,-54.27349
2022-01-24 21:54:01+00:00,315.0,0.01,170.0,0.0,12.33,47.59359,-54.27349
2022-01-24 22:04:01+00:00,315.0,0.01,170.0,0.0,12.33,47.59359,-54.27349
2022-01-24 22:14:01+00:00,315.0,0.01,170.0,0.0,12.33,47.59359,-54.27349
2022-01-24 22:24:01+00:00,315.0,0.01,170.0,0.0,12.33,47.59359,-54.27349
2022-01-24 22:34:01+00:00,315.0,0.01,170.0,0.0,12.33,47.59359,-54.27349
2022-01-24 22:44:01+00:00,315.0,0.01,170.0,0.0,12.33,47.59359,-54.27349
2022-01-24 22:54:01+00:00,315.0,0.01,170.0,0.0,12.33,47.59359,-54.27349
2022-01-24 23:04:01+00:00,315.0,0.01,170.0,0.0,12.33,47.59359,-54.27349
2022-01-24 23:14:01+00:00,315.0,0.01,170.0,0.0,12.33,47.59359,-54.27349
2022-01-24 23:24:01+00:00,315.0,0.01,170.0,0.0,12.33,47.59359,-54.27349
2022-01-24 23:34:01+00:00,315.0,0.01,170.0,0.0,12.33,47.59359,-54.27349
2022-01-24 23:44:01+00:00,315.0,0.01,170.0,0.0,12.33,47.59359,-54.27349
2022-01-24 23:54:01+00:00,315.0,0.01,170.0,0.0,12.33,47.59359,-54.27349
